Tracking 18945 objects as of 19-Jan-2018
HD Live streaming from Space Station
objects crossing your sky now

FENGYUN 1C DEB

Track FENGYUN 1C DEB now!
10-day predictions


NORAD ID: 30293
Int'l Code: 1999-025ZE
Perigee: 714.6 km
Apogee: 849.7 km
Inclination: 99.2 °
Period: 100.3 minutes
Semi major axis: 7153 km
RCS: 0.0098 m2 (small)
Launch date: May 10, 1999
Source: People's Republic of China (PRC)
Launch site: Taiyaun Space Center, China (TSC)

Note: This is SATELLITE DEBRIS
aabbcc
Your satellite tracking list
Your tracking list is empty




NASA's NSSDC Master Catalog

Two Line Element Set (TLE):
1 30293U 99025ZE  18018.78786958 +.00000215 +00000-0 +89251-4 0  9995
2 30293 099.2056 316.7198 0094406 264.5031 124.2743 14.35022006575057
Source of the keplerian elements: AFSPC